Regional Weather Roundup
Issued by NWS

Home | Current Version | Previous Version | Graphics & Text | Print | Product List | Glossary On
Versions: 1 2 3 4 5 6 7 8 9 10 11 12 13 14 15 16 17 18 19 20 21 22 23 24 25 26 27 28 29 30 31 32 33 34 35 36 37 38 39 40 41 42 43 44 45 46 47 48 49 50
000
ASUS44 KMEG 150710
RWRTN
TENNESSEE HOURLY STATE WEATHER ROUNDUP
NATIONAL WEATHER SERVICE MEMPHIS TN
100 AM CST FRI DEC 15 2017

TNZ002-004-019-021-049-052-054-088>092-150800-
WEST TENNESSEE

CITY           SKY/WX    TMP DP  RH WIND       PRES   REMARKS
MEMPHIS INTL   PTCLDY    33  25  72 VRB3      30.14S
NWS MEMPHIS      N/A     29 N/A N/A MISG        N/A
JACKSON        MOCLDY    25  23  92 CALM      30.12F
DYERSBURG      CLOUDY    31  27  85 CALM      30.14F
SOMERVILLE     CLOUDY    28  25  86 CALM      30.11F
COVINGTON      MOCLDY    25  21  86 CALM      30.14F
UNION CITY     CLOUDY    32  27  80 CALM      30.12F
BOLIVAR        PTCLDY    23  21  93 CALM      30.12S
PARIS          CLOUDY    32  23  69 CALM      30.10F
HUNTINGDON     CLOUDY    32  27  80 CALM      30.10F
LEXINGTON      CLOUDY    28  25  86 CALM      30.11F
SELMER         CLEAR     27  25  93 CALM      30.11S
SAVANNAH       CLEAR     25  25 100 CALM      30.11F
$$

TNZ008-025-027-028-033-062-065-066-150800-
NORTH MIDDLE TENNESSEE

CITY           SKY/WX    TMP DP  RH WIND       PRES   REMARKS
NASHVILLE      CLOUDY    33  22  63 NW6       30.09F WCI  28
PORTLAND       CLOUDY    30  23  74 CALM      30.06F
CLARKSVILLE    CLOUDY    31  21  66 N3        30.09F
SMYRNA         CLOUDY    31  25  78 NW5       30.10F WCI  26
COOKEVILLE     CLOUDY    27  25  93 S3        30.04S
GALLATIN       CLOUDY    32  23  69 NW5       30.10F WCI  27
CROSSVILLE     MOCLDY    26  22  84 SW3       30.00R
$$

TNZ061-075-076-078-094-096-097-150800-
SOUTH MIDDLE TENNESSEE

CITY           SKY/WX    TMP DP  RH WIND       PRES   REMARKS
FAYETTEVILLE   PTCLDY    28  23  80 CALM      30.06S
TULLAHOMA      CLEAR     25  21  86 CALM      30.05F
WINCHESTER     CLEAR     28  23  80 NW3       30.07R
MCMINNVILLE    CLOUDY    23  21  93 CALM      30.05S
COLUMBIA       CLOUDY    27  25  93 CALM      30.07F
SHELBYVILLE    CLOUDY    21  21 100 CALM      30.07F FOG
$$

TNZ017-018-042-046-047-150800-
NORTHEAST TENNESSEE

CITY           SKY/WX    TMP DP  RH WIND       PRES   REMARKS
TRI CITIES     MOCLDY    25  24  96 CALM      29.99S
ELIZABETHTON   CLEAR     23  21  93 CALM      29.99S
$$

TNZ012-013-036-069-073-074-150800-
CENTRAL EAST TENNESSEE

CITY           SKY/WX    TMP DP  RH WIND       PRES   REMARKS
KNOXVILLE      CLEAR     29  27  92 SW3       30.02R
OAK RIDGE      CLOUDY    30  26  85 CALM      30.04R
DOWNTOWN KNOXV   N/A     28  28 100 CALM      30.04R FOG
GATLINBURG     CLEAR     27  23  86 CALM      30.02S
MORRISTOWN     MOCLDY    27  25  93 CALM      29.99S
JACKSBORO      CLOUDY    30  27  86 CALM      30.05S
$$

TNZ083-085-099-150800-
SOUTHEAST TENNESSEE

CITY           SKY/WX    TMP DP  RH WIND       PRES   REMARKS
CHATTANOOGA    MOCLDY    36  27  69 N7        30.05S WCI  30
DAYTON         PTSUNNY   27  25  93 CALM      30.04S
$$

SKY/WX REPORTED AS FAIR MEANS FEW OR NO CLOUDS BELOW
12 THOUSAND FEET.




USA.gov is the U.S. government's official web portal to all federal, state and local government web resources and services.